Location: Newark
(45.8511°N, 10.8245°E)
Time: 00:20:24
(UTC+00:00)

OTV 5 (USA 277) - Pass Details

Date: 28 August 2019
Orbit: 295 x 339 km, 54.5° (Epoch: 08 September)

Event Time Altitude Azimuth Distance (km) Brightness Sun altitude
Rises 18:51:49 0° 250° (WSW) 2,004 ? -8.8°
Reaches altitude 10° 18:53:49 10° 257° (WSW) 1,176 ? -9.2°
Maximum altitude 18:56:19 41° 331° (NNW) 452 ? -9.6°
Drops below altitude 10° 18:58:47 10° 44° (NE) 1,168 ? -9.9°
Enters shadow 19:00:25 - 51° (NE) 1,841 ? -10.2°
